Providence, RI

2:52 PM EDT on July 27, 2017 (GMT -0400)
Green State

Weather History for KPVD - August, 2013

Change the Weather History Date:

Monday, August 5, 2013

  Actual Average Record
Temperature  
Mean Temperature 68 °F 74 °F  
Max Temperature 78 °F 83 °F 100 °F (1944)
Min Temperature 57 °F 65 °F 51 °F (1972)
Degree Days  
Heating Degree Days 0 0  
Month to date heating degree days 0 0  
Since 1 June heating degree days 24 46  
Since 1 July heating degree days 0 3  
Cooling Degree Days 3 9  
Month to date cooling degree days 31 45  
Year to date cooling degree days 661 469  
Since 1 June cooling degree days 617 443  
Growing Degree Days 18 (Base 50)    
Moisture  
Dew Point 48 °F    
Average Humidity 56    
Maximum Humidity 86    
Minimum Humidity 25    
Precipitation  
Precipitation 0.00 in 0.12 in 1.86 in (2004)
Month to date precipitation 0.26 0.61  
Year to date precipitation 27.20 27.61  
Snow  
Snow 0.00 in 0.00 in 0.00 in (2002)
Month to date snowfall 0.0 0.0  
Since 1 June snowfall 0.0 0.0  
Since 1 July snowfall 0.0 0.0  
Snow Depth 0.00 in    
Sea Level Pressure  
Sea Level Pressure 29.98 in    
Wind  
Wind Speed 7 mph (WNW)    
Max Wind Speed 18 mph    
Max Gust Speed 23 mph    
Visibility 10 miles    
Events      
T = Trace of Precipitation, MM = Missing Value Source: NWS Daily Summary

Daily Weather History Graph

Daily Weather History Graph

Search for Another Location

Airport or City:

Trip Planner

Search our weather history database for the weather conditions in past years. The results will help you decide how hot, cold, wet, or windy it might be!

Date:

Astronomy

Aug. 05, 2013 Rise Set
Actual Time 5:44 AM EDT 7:58 PM EDT
Civil Twilight 5:13 AM EDT 8:29 PM EDT
Nautical Twilight 4:35 AM EDT 9:07 PM EDT
Astronomical Twilight 3:52 AM EDT 9:49 PM EDT
Moon 4:36 AM EDT (8/5) 6:56 PM EDT (8/5)
Length of Visible Light 15h 16m
Length of Day
14h 14m
Waning Crescent, 1% of the Moon is Illuminated
Aug 5
Waning Crescent
Aug 6
New
Aug 14
First Quarter
Aug 20
Full
Aug 28
Last Quarter

Hourly Weather History & Observations

Time (EDT) Temp. Dew Point Humidity Pressure Visibility Wind Dir Wind Speed Gust Speed Precip Events Conditions
12:51 AM 64.9 °F 52.0 °F 63% 29.91 in 10.0 mi NW 9.2 mph - N/A   Clear
1:51 AM 63.0 °F 52.0 °F 67% 29.91 in 10.0 mi NNW 4.6 mph - N/A   Clear
2:51 AM 62.1 °F 51.1 °F 67% 29.92 in 10.0 mi West 3.5 mph - N/A   Clear
3:51 AM 59.0 °F 52.0 °F 78% 29.92 in 10.0 mi West 5.8 mph - N/A   Clear
4:51 AM 57.9 °F 53.1 °F 84% 29.94 in 10.0 mi West 5.8 mph - N/A   Clear
5:51 AM 57.0 °F 52.0 °F 83% 29.96 in 10.0 mi WSW 4.6 mph - N/A   Mostly Cloudy
6:51 AM 61.0 °F 52.0 °F 72% 29.98 in 10.0 mi NW 3.5 mph - N/A   Partly Cloudy
7:51 AM 64.0 °F 52.0 °F 65% 29.99 in 10.0 mi NW 8.1 mph - N/A   Partly Cloudy
8:51 AM 66.0 °F 52.0 °F 60% 29.99 in 10.0 mi NW 9.2 mph 18.4 mph N/A   Scattered Clouds
9:51 AM 68.0 °F 51.1 °F 55% 29.99 in 10.0 mi NW 11.5 mph 20.7 mph N/A   Partly Cloudy
10:51 AM 71.1 °F 46.0 °F 41% 29.98 in 10.0 mi NW 11.5 mph 18.4 mph N/A   Scattered Clouds
11:51 AM 71.1 °F 42.1 °F 35% 29.99 in 10.0 mi WNW 10.4 mph 19.6 mph N/A   Scattered Clouds
12:51 PM 72.0 °F 45.0 °F 38% 29.98 in 10.0 mi WNW 6.9 mph - N/A   Scattered Clouds
1:51 PM 73.9 °F 45.0 °F 35% 29.97 in 10.0 mi West 8.1 mph 19.6 mph N/A   Partly Cloudy
2:51 PM 75.9 °F 44.1 °F 32% 29.96 in 10.0 mi WNW 15.0 mph 21.9 mph N/A   Partly Cloudy
3:51 PM 75.9 °F 42.1 °F 30% 29.96 in 10.0 mi NW 12.7 mph - N/A   Partly Cloudy
4:51 PM 75.9 °F 37.0 °F 24% 29.97 in 10.0 mi NNW 11.5 mph 19.6 mph N/A   Partly Cloudy
5:51 PM 75.9 °F 41.0 °F 29% 29.97 in 10.0 mi WNW 9.2 mph - N/A   Partly Cloudy
6:51 PM 75.0 °F 45.0 °F 34% 29.99 in 10.0 mi West 6.9 mph - N/A   Partly Cloudy
7:51 PM 72.0 °F 46.9 °F 41% 30.01 in 10.0 mi West 4.6 mph - N/A   Partly Cloudy
8:51 PM 68.0 °F 50.0 °F 52% 30.03 in 10.0 mi West 4.6 mph - N/A   Partly Cloudy
9:51 PM 64.9 °F 51.1 °F 61% 30.04 in 10.0 mi West 4.6 mph - N/A   Clear
10:51 PM 64.0 °F 52.0 °F 65% 30.05 in 10.0 mi Calm Calm - N/A   Partly Cloudy
11:51 PM 60.1 °F 52.0 °F 75% 30.05 in 10.0 mi West 3.5 mph - N/A   Partly Cloudy